Year,Month,Day,Hour,Minute,Value (Times are PST for temperature in C)
2018,06,17,00,00,19.30
2018,06,17,00,01,19.30
2018,06,17,00,02,19.20
2018,06,17,00,03,19.20
2018,06,17,00,04,19.20
2018,06,17,00,05,19.20
2018,06,17,00,06,19.20
2018,06,17,00,07,19.20
2018,06,17,00,08,19.20
2018,06,17,00,09,19.20
2018,06,17,00,10,19.20
2018,06,17,00,11,19.20
2018,06,17,00,12,19.10
2018,06,17,00,13,19.10
2018,06,17,00,14,19.10
2018,06,17,00,15,19.10
2018,06,17,00,16,19.10
2018,06,17,00,17,19.10
2018,06,17,00,18,19.00
2018,06,17,00,19,19.00
2018,06,17,00,20,19.00
2018,06,17,00,21,18.90
2018,06,17,00,22,18.90
2018,06,17,00,23,18.90
2018,06,17,00,24,18.90
2018,06,17,00,25,18.90
2018,06,17,00,26,18.90
2018,06,17,00,27,18.80
2018,06,17,00,28,18.80
2018,06,17,00,29,18.80
2018,06,17,00,30,18.80
2018,06,17,00,31,18.80
2018,06,17,00,32,18.80
2018,06,17,00,33,18.80
2018,06,17,00,34,18.80
2018,06,17,00,35,18.80
2018,06,17,00,36,18.90
2018,06,17,00,37,18.90
2018,06,17,00,38,18.90
2018,06,17,00,39,18.90
2018,06,17,00,40,18.90
2018,06,17,00,41,18.90
2018,06,17,00,42,18.90
2018,06,17,00,43,18.90
2018,06,17,00,44,19.00
2018,06,17,00,45,19.00
2018,06,17,00,46,19.00
2018,06,17,00,47,19.00
2018,06,17,00,48,19.00
2018,06,17,00,49,19.00
2018,06,17,00,50,19.00
2018,06,17,00,51,19.00
2018,06,17,00,52,19.00
2018,06,17,00,53,19.00
2018,06,17,00,54,19.00
2018,06,17,00,55,18.90
2018,06,17,00,56,18.90
2018,06,17,00,57,18.90
2018,06,17,00,58,18.80
2018,06,17,00,59,18.80
2018,06,17,01,00,18.80
2018,06,17,01,01,18.80
2018,06,17,01,02,18.80
2018,06,17,01,03,18.70
2018,06,17,01,04,18.70
2018,06,17,01,05,18.70
2018,06,17,01,06,18.70
2018,06,17,01,07,18.70
2018,06,17,01,08,18.60
2018,06,17,01,09,18.60
2018,06,17,01,10,18.60
2018,06,17,01,11,18.60
2018,06,17,01,12,18.60
2018,06,17,01,13,18.50
2018,06,17,01,14,18.50
2018,06,17,01,15,18.50
2018,06,17,01,16,18.50
2018,06,17,01,17,18.50
2018,06,17,01,18,18.50
2018,06,17,01,19,18.40
2018,06,17,01,20,18.40
2018,06,17,01,21,18.40
2018,06,17,01,22,18.40
2018,06,17,01,23,18.40
2018,06,17,01,24,18.40
2018,06,17,01,25,18.30
2018,06,17,01,26,18.30
2018,06,17,01,27,18.30
2018,06,17,01,28,18.30
2018,06,17,01,29,18.30
2018,06,17,01,30,18.30
2018,06,17,01,31,18.30
2018,06,17,01,32,18.20
2018,06,17,01,33,18.20
2018,06,17,01,34,18.20
2018,06,17,01,35,18.20
2018,06,17,01,36,18.20
2018,06,17,01,37,18.10
2018,06,17,01,38,18.10
2018,06,17,01,39,18.10
2018,06,17,01,40,18.10
2018,06,17,01,41,18.00
2018,06,17,01,42,17.90
2018,06,17,01,43,17.90
2018,06,17,01,44,17.90
2018,06,17,01,45,17.80
2018,06,17,01,46,17.80
2018,06,17,01,47,17.80
2018,06,17,01,48,17.70
2018,06,17,01,49,17.70
2018,06,17,01,50,17.60
2018,06,17,01,51,17.60
2018,06,17,01,52,17.50
2018,06,17,01,53,17.40
2018,06,17,01,54,17.40
2018,06,17,01,55,17.30
2018,06,17,01,56,17.30
2018,06,17,01,57,17.30
2018,06,17,01,58,17.20
2018,06,17,01,59,17.20
2018,06,17,02,00,17.20
2018,06,17,02,01,17.20
2018,06,17,02,02,17.20
2018,06,17,02,03,17.10
2018,06,17,02,04,17.10
2018,06,17,02,05,17.10
2018,06,17,02,06,17.10
2018,06,17,02,07,17.10
2018,06,17,02,08,17.10
2018,06,17,02,09,17.10
2018,06,17,02,10,17.00
2018,06,17,02,11,17.00
2018,06,17,02,12,16.90
2018,06,17,02,13,16.90
2018,06,17,02,14,16.90
2018,06,17,02,15,16.80
2018,06,17,02,16,16.80
2018,06,17,02,17,16.80
2018,06,17,02,18,16.80
2018,06,17,02,19,16.80
2018,06,17,02,20,16.80
2018,06,17,02,21,16.80
2018,06,17,02,22,16.80
2018,06,17,02,23,16.70
2018,06,17,02,24,16.70
2018,06,17,02,25,16.70
2018,06,17,02,26,16.70
2018,06,17,02,27,16.70
2018,06,17,02,28,16.60
2018,06,17,02,29,16.60
2018,06,17,02,30,16.60
2018,06,17,02,31,16.60
2018,06,17,02,32,16.50
2018,06,17,02,33,16.50
2018,06,17,02,34,16.60
2018,06,17,02,35,16.60
2018,06,17,02,36,16.60
2018,06,17,02,37,16.60
2018,06,17,02,38,16.70
2018,06,17,02,39,16.70
2018,06,17,02,40,16.80
2018,06,17,02,41,16.80
2018,06,17,02,42,16.80
2018,06,17,02,43,16.90
2018,06,17,02,44,16.90
2018,06,17,02,45,16.90
2018,06,17,02,46,16.90
2018,06,17,02,47,16.90
2018,06,17,02,48,16.90
2018,06,17,02,49,16.90
2018,06,17,02,50,16.90
2018,06,17,02,51,16.90
2018,06,17,02,52,16.90
2018,06,17,02,53,16.90
2018,06,17,02,54,16.90
2018,06,17,02,55,16.90
2018,06,17,02,56,16.90
2018,06,17,02,57,16.90
2018,06,17,02,58,16.80
2018,06,17,02,59,16.80
2018,06,17,03,00,16.80
2018,06,17,03,01,16.70
2018,06,17,03,02,16.70
2018,06,17,03,03,16.70
2018,06,17,03,04,16.70
2018,06,17,03,05,16.70
2018,06,17,03,06,16.80
2018,06,17,03,07,16.80
2018,06,17,03,08,16.80
2018,06,17,03,09,16.80
2018,06,17,03,10,16.90
2018,06,17,03,11,16.90
2018,06,17,03,12,16.90
2018,06,17,03,13,16.90
2018,06,17,03,14,16.90
2018,06,17,03,15,16.90
2018,06,17,03,16,16.90
2018,06,17,03,17,16.90
2018,06,17,03,18,16.90
2018,06,17,03,19,16.90
2018,06,17,03,20,16.90
2018,06,17,03,21,16.90
2018,06,17,03,22,16.90
2018,06,17,03,23,16.90
2018,06,17,03,24,16.90
2018,06,17,03,25,16.80
2018,06,17,03,26,16.80
2018,06,17,03,27,16.80
2018,06,17,03,28,16.80
2018,06,17,03,29,16.80
2018,06,17,03,30,16.70
2018,06,17,03,31,16.70
2018,06,17,03,32,16.70
2018,06,17,03,33,16.70
2018,06,17,03,34,16.70
2018,06,17,03,35,16.60
2018,06,17,03,36,16.60
2018,06,17,03,37,16.60
2018,06,17,03,38,16.60
2018,06,17,03,39,16.60
2018,06,17,03,40,16.70
2018,06,17,03,41,16.70
2018,06,17,03,42,16.70
2018,06,17,03,43,16.70
2018,06,17,03,44,16.70
2018,06,17,03,45,16.70
2018,06,17,03,46,16.70
2018,06,17,03,47,16.70
2018,06,17,03,48,16.70
2018,06,17,03,49,16.70
2018,06,17,03,50,16.70
2018,06,17,03,51,16.70
2018,06,17,03,52,16.60
2018,06,17,03,53,16.60
2018,06,17,03,54,16.60
2018,06,17,03,55,16.60
2018,06,17,03,56,16.50
2018,06,17,03,57,16.50
2018,06,17,03,58,16.50
2018,06,17,03,59,16.50
2018,06,17,04,00,16.40
2018,06,17,04,01,16.40
2018,06,17,04,02,16.40
2018,06,17,04,03,16.40
2018,06,17,04,04,16.30
2018,06,17,04,05,16.30
2018,06,17,04,06,16.30
2018,06,17,04,07,16.30
2018,06,17,04,08,16.30
2018,06,17,04,09,16.30
2018,06,17,04,10,16.20
2018,06,17,04,11,16.20
2018,06,17,04,12,16.20
2018,06,17,04,13,16.20
2018,06,17,04,14,16.20
2018,06,17,04,15,16.20
2018,06,17,04,16,16.20
2018,06,17,04,17,16.20
2018,06,17,04,18,16.20
2018,06,17,04,19,16.20
2018,06,17,04,20,16.20
2018,06,17,04,21,16.20
2018,06,17,04,22,16.20
2018,06,17,04,23,16.20
2018,06,17,04,24,16.20
2018,06,17,04,25,16.20
2018,06,17,04,26,16.20
2018,06,17,04,27,16.20
2018,06,17,04,28,16.20
2018,06,17,04,29,16.20
2018,06,17,04,30,16.20
2018,06,17,04,31,16.20
2018,06,17,04,32,16.10
2018,06,17,04,33,16.10
2018,06,17,04,34,16.10
2018,06,17,04,35,16.10
2018,06,17,04,36,16.10
2018,06,17,04,37,16.10
2018,06,17,04,38,16.10
2018,06,17,04,39,16.10
2018,06,17,04,40,16.10
2018,06,17,04,41,16.10
2018,06,17,04,42,16.10
2018,06,17,04,43,16.10
2018,06,17,04,44,16.10
2018,06,17,04,45,16.10
2018,06,17,04,46,16.10
2018,06,17,04,47,16.10
2018,06,17,04,48,16.10
2018,06,17,04,49,16.10
2018,06,17,04,50,16.10
2018,06,17,04,51,16.10
2018,06,17,04,52,16.10
2018,06,17,04,53,16.10
2018,06,17,04,54,16.10
2018,06,17,04,55,16.10
2018,06,17,04,56,16.10
2018,06,17,04,57,16.20
2018,06,17,04,58,16.20
2018,06,17,04,59,16.20
2018,06,17,05,00,16.20
2018,06,17,05,01,16.20
2018,06,17,05,02,16.20
2018,06,17,05,03,16.20
2018,06,17,05,04,16.20
2018,06,17,05,05,16.20
2018,06,17,05,06,16.20
2018,06,17,05,07,16.20
2018,06,17,05,08,16.20
2018,06,17,05,09,16.20
2018,06,17,05,10,16.20
2018,06,17,05,11,16.10
2018,06,17,05,12,16.10
2018,06,17,05,13,16.10
2018,06,17,05,14,16.10
2018,06,17,05,15,16.10
2018,06,17,05,16,16.10
2018,06,17,05,17,16.10
2018,06,17,05,18,16.00
2018,06,17,05,19,16.00
2018,06,17,05,20,16.00
2018,06,17,05,21,16.00
2018,06,17,05,22,16.00
2018,06,17,05,23,15.90
2018,06,17,05,24,15.90
2018,06,17,05,25,15.90
2018,06,17,05,26,15.90
2018,06,17,05,27,15.90
2018,06,17,05,28,15.90
2018,06,17,05,29,15.80
2018,06,17,05,30,15.80
2018,06,17,05,31,15.80
2018,06,17,05,32,15.80
2018,06,17,05,33,15.80
2018,06,17,05,34,15.80
2018,06,17,05,35,15.80
2018,06,17,05,36,15.80
2018,06,17,05,37,15.80
2018,06,17,05,38,15.80
2018,06,17,05,39,15.90
2018,06,17,05,40,15.90
2018,06,17,05,41,15.90
2018,06,17,05,42,15.90
2018,06,17,05,43,15.90
2018,06,17,05,44,16.00
2018,06,17,05,45,15.90
2018,06,17,05,46,16.00
2018,06,17,05,47,16.00
2018,06,17,05,48,16.00
2018,06,17,05,49,16.00
2018,06,17,05,50,16.00
2018,06,17,05,51,16.10
2018,06,17,05,52,16.10
2018,06,17,05,53,16.10
2018,06,17,05,54,16.10
2018,06,17,05,55,16.10
2018,06,17,05,56,16.10
2018,06,17,05,57,16.10
2018,06,17,05,58,16.10
2018,06,17,05,59,16.10
2018,06,17,06,00,16.10
2018,06,17,06,01,16.20
2018,06,17,06,02,16.20
2018,06,17,06,03,16.20
2018,06,17,06,04,16.20
2018,06,17,06,05,16.30
2018,06,17,06,06,16.30
2018,06,17,06,07,16.30
2018,06,17,06,08,16.30
2018,06,17,06,09,16.30
2018,06,17,06,10,16.40
2018,06,17,06,11,16.40
2018,06,17,06,12,16.40
2018,06,17,06,13,16.40
2018,06,17,06,14,16.40
2018,06,17,06,15,16.40
2018,06,17,06,16,16.40
2018,06,17,06,17,16.40
2018,06,17,06,18,16.40
2018,06,17,06,19,16.40
2018,06,17,06,20,16.40
2018,06,17,06,21,16.40
2018,06,17,06,22,16.40
2018,06,17,06,23,16.40
2018,06,17,06,24,16.40
2018,06,17,06,25,16.40
2018,06,17,06,26,16.40
2018,06,17,06,27,16.40
2018,06,17,06,28,16.40
2018,06,17,06,29,16.40
2018,06,17,06,30,16.40
2018,06,17,06,31,16.40
2018,06,17,06,32,16.40
2018,06,17,06,33,16.40
2018,06,17,06,34,16.40
2018,06,17,06,35,16.40
2018,06,17,06,36,16.50
2018,06,17,06,37,16.50
2018,06,17,06,38,16.50
2018,06,17,06,39,16.60
2018,06,17,06,40,16.60
2018,06,17,06,41,16.70
2018,06,17,06,42,16.70
2018,06,17,06,43,16.70
2018,06,17,06,44,16.80
2018,06,17,06,45,16.80
2018,06,17,06,46,16.80
2018,06,17,06,47,16.90
2018,06,17,06,48,16.90
2018,06,17,06,49,16.90
2018,06,17,06,50,16.90
2018,06,17,06,51,16.90
2018,06,17,06,52,17.00
2018,06,17,06,53,17.00
2018,06,17,06,54,17.10
2018,06,17,06,55,17.10
2018,06,17,06,56,17.10
2018,06,17,06,57,17.10
2018,06,17,06,58,17.20
2018,06,17,06,59,17.20
2018,06,17,07,00,17.20
2018,06,17,07,01,17.30
2018,06,17,07,02,17.30
2018,06,17,07,03,17.30
2018,06,17,07,04,17.30
2018,06,17,07,05,17.40
2018,06,17,07,06,17.40
2018,06,17,07,07,17.50
2018,06,17,07,08,17.50
2018,06,17,07,09,17.60
2018,06,17,07,10,17.60
2018,06,17,07,11,17.60
2018,06,17,07,12,17.70
2018,06,17,07,13,17.70
2018,06,17,07,14,17.80
2018,06,17,07,15,17.80
2018,06,17,07,16,17.80
2018,06,17,07,17,17.80
2018,06,17,07,18,17.90
2018,06,17,07,19,17.90
2018,06,17,07,20,17.90
2018,06,17,07,21,17.90
2018,06,17,07,22,17.90
2018,06,17,07,23,17.90
2018,06,17,07,24,17.90
2018,06,17,07,25,18.00
2018,06,17,07,26,18.00
2018,06,17,07,27,18.00
2018,06,17,07,28,18.00
2018,06,17,07,29,18.10
2018,06,17,07,30,18.00
2018,06,17,07,31,18.00
2018,06,17,07,32,18.00
2018,06,17,07,33,18.00
2018,06,17,07,34,18.00
2018,06,17,07,35,18.10
2018,06,17,07,36,18.10
2018,06,17,07,37,18.10
2018,06,17,07,38,18.10
2018,06,17,07,39,18.20
2018,06,17,07,40,18.20
2018,06,17,07,41,18.20
2018,06,17,07,42,18.30
2018,06,17,07,43,18.30
2018,06,17,07,44,18.30
2018,06,17,07,45,18.40
2018,06,17,07,46,18.50
2018,06,17,07,47,18.60
2018,06,17,07,48,18.60
2018,06,17,07,49,18.70
2018,06,17,07,50,18.70
2018,06,17,07,51,18.80
2018,06,17,07,52,18.80
2018,06,17,07,53,18.90
2018,06,17,07,54,18.90
2018,06,17,07,55,18.90
2018,06,17,07,56,19.00
2018,06,17,07,57,19.00
2018,06,17,07,58,19.10
2018,06,17,07,59,19.10
2018,06,17,08,00,19.20
2018,06,17,08,01,19.20
2018,06,17,08,02,19.20
2018,06,17,08,03,19.30
2018,06,17,08,04,19.30
2018,06,17,08,05,19.30
2018,06,17,08,06,19.30
2018,06,17,08,07,19.30
2018,06,17,08,08,19.30
2018,06,17,08,09,19.30
2018,06,17,08,10,19.40
2018,06,17,08,11,19.40
2018,06,17,08,12,19.40
2018,06,17,08,13,19.40
2018,06,17,08,14,19.50
2018,06,17,08,15,19.50
2018,06,17,08,16,19.50
2018,06,17,08,17,19.60
2018,06,17,08,18,19.60
2018,06,17,08,19,19.60
2018,06,17,08,20,19.70
2018,06,17,08,21,19.80
2018,06,17,08,22,19.80
2018,06,17,08,23,19.90
2018,06,17,08,24,19.90
2018,06,17,08,25,20.00
2018,06,17,08,26,20.10
2018,06,17,08,27,20.10
2018,06,17,08,28,20.30
2018,06,17,08,29,20.30
2018,06,17,08,30,20.40
2018,06,17,08,31,20.50
2018,06,17,08,32,20.50
2018,06,17,08,33,20.60
2018,06,17,08,34,20.70
2018,06,17,08,35,20.80
2018,06,17,08,36,20.80
2018,06,17,08,37,21.00
2018,06,17,08,38,21.10
2018,06,17,08,39,21.20
2018,06,17,08,40,21.30
2018,06,17,08,41,21.30
2018,06,17,08,42,21.40
2018,06,17,08,43,21.40
2018,06,17,08,44,21.50
2018,06,17,08,45,21.50
2018,06,17,08,46,21.60
2018,06,17,08,47,21.60
2018,06,17,08,48,21.70
2018,06,17,08,49,21.70
2018,06,17,08,50,21.70
2018,06,17,08,51,21.70
2018,06,17,08,52,21.70
2018,06,17,08,53,21.70
2018,06,17,08,54,21.70
2018,06,17,08,55,21.70
2018,06,17,08,56,21.70
2018,06,17,08,57,21.70
2018,06,17,08,58,21.70
2018,06,17,08,59,21.70
2018,06,17,09,00,21.70
2018,06,17,09,01,21.60
2018,06,17,09,02,21.60
2018,06,17,09,03,21.60
2018,06,17,09,04,21.60
2018,06,17,09,05,21.50
2018,06,17,09,06,21.50
2018,06,17,09,07,21.50
2018,06,17,09,08,21.50
2018,06,17,09,09,21.50
2018,06,17,09,10,21.60
2018,06,17,09,11,21.60
2018,06,17,09,12,21.60
2018,06,17,09,13,21.60
2018,06,17,09,14,21.60
2018,06,17,09,15,21.60
2018,06,17,09,16,21.60
2018,06,17,09,17,21.60
2018,06,17,09,18,21.60
2018,06,17,09,19,21.60
2018,06,17,09,20,21.60
2018,06,17,09,21,21.70
2018,06,17,09,22,21.70
2018,06,17,09,23,21.70
2018,06,17,09,24,21.70
2018,06,17,09,25,21.70
2018,06,17,09,26,21.70
2018,06,17,09,27,21.70
2018,06,17,09,28,21.70
2018,06,17,09,29,21.60
2018,06,17,09,30,21.60
2018,06,17,09,31,21.60
2018,06,17,09,32,21.60
2018,06,17,09,33,21.50
2018,06,17,09,34,21.40
2018,06,17,09,35,21.40
2018,06,17,09,36,21.30
2018,06,17,09,37,21.30
2018,06,17,09,38,21.30
2018,06,17,09,39,21.20
2018,06,17,09,40,21.20
2018,06,17,09,41,21.10
2018,06,17,09,42,21.10
2018,06,17,09,43,21.00
2018,06,17,09,44,21.00
2018,06,17,09,45,20.90
2018,06,17,09,46,20.90
2018,06,17,09,47,20.90
2018,06,17,09,48,20.90
2018,06,17,09,49,20.90
2018,06,17,09,50,20.90
2018,06,17,09,51,20.90
2018,06,17,09,52,20.90
2018,06,17,09,53,20.90
2018,06,17,09,54,20.90
2018,06,17,09,55,21.00
2018,06,17,09,56,21.00
2018,06,17,09,57,21.10
2018,06,17,09,58,21.10
2018,06,17,09,59,21.20
2018,06,17,10,00,21.30
2018,06,17,10,01,21.30
2018,06,17,10,02,21.40
2018,06,17,10,03,21.50
2018,06,17,10,04,21.60
2018,06,17,10,05,21.70
2018,06,17,10,06,21.80
2018,06,17,10,07,21.90
2018,06,17,10,08,22.00
2018,06,17,10,09,22.00
2018,06,17,10,10,22.10
2018,06,17,10,11,22.20
2018,06,17,10,12,22.30
2018,06,17,10,13,22.30
2018,06,17,10,14,22.40
2018,06,17,10,15,22.40
2018,06,17,10,16,22.50
2018,06,17,10,17,22.50
2018,06,17,10,18,22.60
2018,06,17,10,19,22.60
2018,06,17,10,20,22.60
2018,06,17,10,21,22.60
2018,06,17,10,22,22.60
2018,06,17,10,23,22.70
2018,06,17,10,24,22.70
2018,06,17,10,25,22.70
2018,06,17,10,26,22.70
2018,06,17,10,27,22.80
2018,06,17,10,28,22.80
2018,06,17,10,29,22.80
2018,06,17,10,30,22.90
2018,06,17,10,31,22.90
2018,06,17,10,32,23.00
2018,06,17,10,33,23.00
2018,06,17,10,34,23.00
2018,06,17,10,35,23.10
2018,06,17,10,36,23.10
2018,06,17,10,37,23.20
2018,06,17,10,38,23.20
2018,06,17,10,39,23.30
2018,06,17,10,40,23.30
2018,06,17,10,41,23.30
2018,06,17,10,42,23.30
2018,06,17,10,43,23.40
2018,06,17,10,44,23.40
2018,06,17,10,45,23.50
2018,06,17,10,46,23.60
2018,06,17,10,47,23.60
2018,06,17,10,48,23.70
2018,06,17,10,49,23.80
2018,06,17,10,50,23.90
2018,06,17,10,51,24.00
2018,06,17,10,52,24.00
2018,06,17,10,53,24.10
2018,06,17,10,54,24.10
2018,06,17,10,55,24.10
2018,06,17,10,56,24.10
2018,06,17,10,57,24.20
2018,06,17,10,58,24.20
2018,06,17,10,59,24.20
2018,06,17,11,00,24.30
2018,06,17,11,01,24.30
2018,06,17,11,02,24.30
2018,06,17,11,03,24.30
2018,06,17,11,04,24.30
2018,06,17,11,05,24.30
2018,06,17,11,06,24.30
2018,06,17,11,07,24.30
2018,06,17,11,08,24.20
2018,06,17,11,09,24.20
2018,06,17,11,10,24.10
2018,06,17,11,11,24.10
2018,06,17,11,12,24.10
2018,06,17,11,13,24.10
2018,06,17,11,14,24.10
2018,06,17,11,15,24.10
2018,06,17,11,16,24.10
2018,06,17,11,17,24.10
2018,06,17,11,18,24.20
2018,06,17,11,19,24.20
2018,06,17,11,20,24.20
2018,06,17,11,21,24.30
2018,06,17,11,22,24.30
2018,06,17,11,23,24.40
2018,06,17,11,24,24.40
2018,06,17,11,25,24.40
2018,06,17,11,26,24.50
2018,06,17,11,27,24.50
2018,06,17,11,28,24.50
2018,06,17,11,29,24.60
2018,06,17,11,30,24.60
2018,06,17,11,31,24.60
2018,06,17,11,32,24.60
2018,06,17,11,33,24.60
2018,06,17,11,34,24.60
2018,06,17,11,35,24.60
2018,06,17,11,36,24.60
2018,06,17,11,37,24.60
2018,06,17,11,38,24.50
2018,06,17,11,39,24.50
2018,06,17,11,40,24.50
2018,06,17,11,41,24.50
2018,06,17,11,42,24.60
2018,06,17,11,43,24.60
2018,06,17,11,44,24.70
2018,06,17,11,45,24.70
2018,06,17,11,46,24.70
2018,06,17,11,47,24.70
2018,06,17,11,48,24.80
2018,06,17,11,49,24.80
2018,06,17,11,50,24.80
2018,06,17,11,51,24.80
2018,06,17,11,52,24.90
2018,06,17,11,53,24.90
2018,06,17,11,54,24.90
2018,06,17,11,55,24.90
2018,06,17,11,56,24.90
2018,06,17,11,57,24.90
2018,06,17,11,58,24.90
2018,06,17,11,59,25.00
2018,06,17,12,00,25.00
2018,06,17,12,01,25.00
2018,06,17,12,02,25.10
2018,06,17,12,03,25.10
2018,06,17,12,04,25.20
2018,06,17,12,05,25.20
2018,06,17,12,06,25.20
2018,06,17,12,07,25.20
2018,06,17,12,08,25.20
2018,06,17,12,09,25.20
2018,06,17,12,10,25.30
2018,06,17,12,11,25.30
2018,06,17,12,12,25.40
2018,06,17,12,13,25.40
2018,06,17,12,14,25.40
2018,06,17,12,15,25.40
2018,06,17,12,16,25.40
2018,06,17,12,17,25.40
2018,06,17,12,18,25.30
2018,06,17,12,19,25.30
2018,06,17,12,20,25.30
2018,06,17,12,21,25.30
2018,06,17,12,22,25.30
2018,06,17,12,23,25.30
2018,06,17,12,24,25.30
2018,06,17,12,25,25.30
2018,06,17,12,26,25.30
2018,06,17,12,27,25.30
2018,06,17,12,28,25.30
2018,06,17,12,29,25.30
2018,06,17,12,30,25.30
2018,06,17,12,31,25.40
2018,06,17,12,32,25.40
2018,06,17,12,33,25.40
2018,06,17,12,34,25.40
2018,06,17,12,35,25.40
2018,06,17,12,36,25.50
2018,06,17,12,37,25.50
2018,06,17,12,38,25.60
2018,06,17,12,39,25.60
2018,06,17,12,40,25.70
2018,06,17,12,41,25.70
2018,06,17,12,42,25.70
2018,06,17,12,43,25.70
2018,06,17,12,44,25.70
2018,06,17,12,45,25.80
2018,06,17,12,46,25.80
2018,06,17,12,47,25.90
2018,06,17,12,48,25.90
2018,06,17,12,49,25.90
2018,06,17,12,50,25.90
2018,06,17,12,51,25.90
2018,06,17,12,52,25.90
2018,06,17,12,53,26.00
2018,06,17,12,54,26.00
2018,06,17,12,55,25.90
2018,06,17,12,56,25.90
2018,06,17,12,57,25.90
2018,06,17,12,58,25.90
2018,06,17,12,59,25.90
2018,06,17,13,00,26.00
2018,06,17,13,01,26.00
2018,06,17,13,02,26.00
2018,06,17,13,03,26.00
2018,06,17,13,04,26.10
2018,06,17,13,05,26.10
2018,06,17,13,06,26.10
2018,06,17,13,07,26.10
2018,06,17,13,08,26.10
2018,06,17,13,09,26.20
2018,06,17,13,10,26.20
2018,06,17,13,11,26.20
2018,06,17,13,12,26.20
2018,06,17,13,13,26.20
2018,06,17,13,14,26.10
2018,06,17,13,15,26.10
2018,06,17,13,16,26.10
2018,06,17,13,17,26.10
2018,06,17,13,18,26.10
2018,06,17,13,19,26.20
2018,06,17,13,20,26.20
2018,06,17,13,21,26.20
2018,06,17,13,22,26.30
2018,06,17,13,23,26.40
2018,06,17,13,24,26.40
2018,06,17,13,25,26.50
2018,06,17,13,26,26.50
2018,06,17,13,27,26.60
2018,06,17,13,28,26.60
2018,06,17,13,29,26.60
2018,06,17,13,30,26.60
2018,06,17,13,31,26.70
2018,06,17,13,32,26.70
2018,06,17,13,33,26.80
2018,06,17,13,34,26.80
2018,06,17,13,35,26.90
2018,06,17,13,36,27.00
2018,06,17,13,37,27.10
2018,06,17,13,38,27.10
2018,06,17,13,39,27.20
2018,06,17,13,40,27.20
2018,06,17,13,41,27.20
2018,06,17,13,42,27.30
2018,06,17,13,43,27.30
2018,06,17,13,44,27.30
2018,06,17,13,45,27.30
2018,06,17,13,46,27.30
2018,06,17,13,47,27.40
2018,06,17,13,48,27.50
2018,06,17,13,49,27.50
2018,06,17,13,50,27.60
2018,06,17,13,51,27.70
2018,06,17,13,52,27.70
2018,06,17,13,53,27.80
2018,06,17,13,54,27.80
2018,06,17,13,55,27.90
2018,06,17,13,56,28.00
2018,06,17,13,57,28.00
2018,06,17,13,58,28.10
2018,06,17,13,59,28.10
2018,06,17,14,00,28.10
2018,06,17,14,01,28.10
2018,06,17,14,02,28.20
2018,06,17,14,03,28.30
2018,06,17,14,04,28.40
2018,06,17,14,05,28.40
2018,06,17,14,06,28.40
2018,06,17,14,07,28.50
2018,06,17,14,08,28.50
2018,06,17,14,09,28.50
2018,06,17,14,10,28.60
2018,06,17,14,11,28.60
2018,06,17,14,12,28.70
2018,06,17,14,13,28.70
2018,06,17,14,14,28.80
2018,06,17,14,15,28.80
2018,06,17,14,16,28.80
2018,06,17,14,17,28.80
2018,06,17,14,18,28.80
2018,06,17,14,19,28.80
2018,06,17,14,20,28.80
2018,06,17,14,21,28.90
2018,06,17,14,22,28.90
2018,06,17,14,23,28.90
2018,06,17,14,24,28.90
2018,06,17,14,25,28.90
2018,06,17,14,26,29.00
2018,06,17,14,27,29.10
2018,06,17,14,28,29.10
2018,06,17,14,29,29.10
2018,06,17,14,30,29.20
2018,06,17,14,31,29.20
2018,06,17,14,32,29.20
2018,06,17,14,33,29.20
2018,06,17,14,34,29.10
2018,06,17,14,35,29.10
2018,06,17,14,36,29.10
2018,06,17,14,37,29.10
2018,06,17,14,38,29.10
2018,06,17,14,39,29.20
2018,06,17,14,40,29.20
2018,06,17,14,41,29.20
2018,06,17,14,42,29.20
2018,06,17,14,43,29.20
2018,06,17,14,44,29.20
2018,06,17,14,45,29.30
2018,06,17,14,46,29.40
2018,06,17,14,47,29.50
2018,06,17,14,48,29.60
2018,06,17,14,49,29.60
2018,06,17,14,50,29.60
2018,06,17,14,51,29.60
2018,06,17,14,52,29.50
2018,06,17,14,53,29.50
2018,06,17,14,54,29.50
2018,06,17,14,55,29.50
2018,06,17,14,56,29.60
2018,06,17,14,57,29.60
2018,06,17,14,58,29.60
2018,06,17,14,59,29.60
2018,06,17,15,00,29.60
2018,06,17,15,01,29.60
2018,06,17,15,02,29.60
2018,06,17,15,03,29.70
2018,06,17,15,04,29.70
2018,06,17,15,05,29.80
2018,06,17,15,06,29.80
2018,06,17,15,07,29.90
2018,06,17,15,08,30.00
2018,06,17,15,09,30.10
2018,06,17,15,10,30.10
2018,06,17,15,11,30.20
2018,06,17,15,12,30.10
2018,06,17,15,13,30.10
2018,06,17,15,14,30.10
2018,06,17,15,15,30.10
2018,06,17,15,16,30.10
2018,06,17,15,17,30.10
2018,06,17,15,18,30.10
2018,06,17,15,19,30.10
2018,06,17,15,20,30.10
2018,06,17,15,21,30.10
2018,06,17,15,22,30.10
2018,06,17,15,23,30.20
2018,06,17,15,24,30.20
2018,06,17,15,25,30.10
2018,06,17,15,26,30.10
2018,06,17,15,27,30.10
2018,06,17,15,28,30.10
2018,06,17,15,29,30.10
2018,06,17,15,30,30.30
2018,06,17,15,31,30.40
2018,06,17,15,32,30.40
2018,06,17,15,33,30.50
2018,06,17,15,34,30.60
2018,06,17,15,35,30.60
2018,06,17,15,36,30.50
2018,06,17,15,37,30.50
2018,06,17,15,38,30.50
2018,06,17,15,39,30.50
2018,06,17,15,40,30.50
2018,06,17,15,41,30.50
2018,06,17,15,42,30.50
2018,06,17,15,43,30.50
2018,06,17,15,44,30.50
2018,06,17,15,45,30.50
2018,06,17,15,46,30.40
2018,06,17,15,47,30.40
2018,06,17,15,48,30.50
2018,06,17,15,49,30.50
2018,06,17,15,50,30.60
2018,06,17,15,51,30.60
2018,06,17,15,52,30.70
2018,06,17,15,53,30.80
2018,06,17,15,54,30.80
2018,06,17,15,55,30.80
2018,06,17,15,56,30.80
2018,06,17,15,57,30.80
2018,06,17,15,58,30.80
2018,06,17,15,59,30.80
2018,06,17,16,00,30.80
2018,06,17,16,01,30.80
2018,06,17,16,02,30.70
2018,06,17,16,03,30.70
2018,06,17,16,04,30.70
2018,06,17,16,05,30.70
2018,06,17,16,06,30.70
2018,06,17,16,07,30.80
2018,06,17,16,08,30.80
2018,06,17,16,09,30.80
2018,06,17,16,10,30.90
2018,06,17,16,11,30.90
2018,06,17,16,12,30.90
2018,06,17,16,13,30.90
2018,06,17,16,14,30.90
2018,06,17,16,15,30.90
2018,06,17,16,16,30.90
2018,06,17,16,17,30.90
2018,06,17,16,18,31.00
2018,06,17,16,19,31.00
2018,06,17,16,20,31.00
2018,06,17,16,21,31.00
2018,06,17,16,22,30.90
2018,06,17,16,23,30.90
2018,06,17,16,24,30.90
2018,06,17,16,25,30.90
2018,06,17,16,26,30.90
2018,06,17,16,27,30.90
2018,06,17,16,28,30.90
2018,06,17,16,29,31.00
2018,06,17,16,30,31.10
2018,06,17,16,31,31.10
2018,06,17,16,32,31.10
2018,06,17,16,33,31.10
2018,06,17,16,34,31.10
2018,06,17,16,35,31.10
2018,06,17,16,36,31.10
2018,06,17,16,37,31.10
2018,06,17,16,38,31.10
2018,06,17,16,39,31.10
2018,06,17,16,40,31.20
2018,06,17,16,41,31.20
2018,06,17,16,42,31.20
2018,06,17,16,43,31.10
2018,06,17,16,44,31.10
2018,06,17,16,45,31.20
2018,06,17,16,46,31.20
2018,06,17,16,47,31.20
2018,06,17,16,48,31.20
2018,06,17,16,49,31.30
2018,06,17,16,50,31.40
2018,06,17,16,51,31.40
2018,06,17,16,52,31.40
2018,06,17,16,53,31.40
2018,06,17,16,54,31.50
2018,06,17,16,55,31.50
2018,06,17,16,56,31.40
2018,06,17,16,57,31.40
2018,06,17,16,58,31.40
2018,06,17,16,59,31.30
2018,06,17,17,00,31.30
2018,06,17,17,01,31.30
2018,06,17,17,02,31.30
2018,06,17,17,03,31.40
2018,06,17,17,04,31.40
2018,06,17,17,05,31.40
2018,06,17,17,06,31.40
2018,06,17,17,07,31.40
2018,06,17,17,08,31.40
2018,06,17,17,09,31.50
2018,06,17,17,10,31.50
2018,06,17,17,11,31.60
2018,06,17,17,12,31.60
2018,06,17,17,13,31.70
2018,06,17,17,14,31.70
2018,06,17,17,15,31.70
2018,06,17,17,16,31.70
2018,06,17,17,17,31.70
2018,06,17,17,18,31.70
2018,06,17,17,19,31.70